FW9081 Weather Reports


time (UTC)temp
F
wind
direction
speed
knots
gust
knots
rain 1hr
in
rain 24hr
in
rain mn
in
humidity
%
barometer
mb
20260507095934 70 184 7.0 7.8 0.00 0.00 0.00 49 1014.1
20260507095432 70 183 6.1 8.7 0.00 0.00 0.00 49 1014.3
20260507094934 70 183 5.2 8.7 0.00 0.00 0.00 48 1014.1
20260507094434 70 182 6.1 7.8 0.00 0.00 0.00 51 1014.3
20260507093933 70 184 5.2 7.0 0.00 0.00 0.00 52 1014.3
20260507093432 70 182 6.1 7.0 0.00 0.00 0.00 52 1014.3
20260507092935 70 183 7.0 7.8 0.00 0.00 0.00 51 1014.3
20260507092432 70 183 6.1 7.8 0.00 0.00 0.00 52 1014.4
20260507091933 70 183 6.1 7.8 0.00 0.00 0.00 51 1014.5
20260507091432 69 192 5.2 8.7 0.00 0.00 0.00 51 1014.3
20260507090934 69 193 2.6 8.7 0.00 0.00 0.00 51 1014.3
20260507090433 69 182 7.8 9.6 0.00 0.00 0.00 52 1014.3
20260507085933 68 183 7.8 9.6 0.00 0.00 0.00 54 1014.3
20260507085432 68 183 7.0 8.7 0.00 0.00 0.00 55 1014.3
20260507084935 67 198 5.2 9.6 0.00 0.00 0.00 55 1014.3
20260507084433 67 186 6.1 9.6 0.00 0.00 0.00 61 1014.4
20260507083934 67 186 6.1 9.6 0.00 0.00 0.00 60 1014.2
20260507083432 67 186 7.0 9.6 0.00 0.00 0.00 59 1014.4
20260507082934 66 180 7.8 8.7 0.00 0.00 0.00 60 1014.1
20260507082433 66 187 6.1 9.6 0.00 0.00 0.00 62 1014.3
20260507081936 66 188 7.0 9.6 0.00 0.00 0.00 61 1014.3
20260507081432 65 183 4.3 8.7 0.00 0.00 0.00 64 1014.3
20260507080935 65 172 6.1 8.7 0.00 0.00 0.00 65 1014.4
20260507080433 64 180 6.1 7.8 0.00 0.00 0.00 65 1014.5
20260507075934 64 187 6.1 7.8 0.00 0.00 0.00 65 1014.4
20260507075432 64 182 5.2 8.7 0.00 0.00 0.00 65 1014.2
20260507074934 64 184 7.0 8.7 0.00 0.00 0.00 64 1014.4
20260507074432 64 180 5.2 7.8 0.00 0.00 0.00 63 1014.4
20260507073935 64 194 4.3 8.7 0.00 0.00 0.00 64 1014.5
20260507073433 64 195 5.2 8.7 0.00 0.00 0.00 64 1014.2
20260507072934 64 186 7.0 8.7 0.00 0.00 0.00 63 1014.3
20260507072433 64 187 6.1 7.8 0.00 0.00 0.00 63 1014.2
20260507071935 64 180 4.3 9.6 0.00 0.00 0.00 63 1014.1
20260507071432 64 181 7.0 9.6 0.00 0.00 0.00 63 1014.3
20260507070934 64 183 6.1 9.6 0.00 0.00 0.00 63 1014.4
20260507070432 64 192 7.8 9.6 0.00 0.00 0.00 64 1014.1
20260507065934 64 180 7.0 8.7 0.00 0.00 0.00 64 1014.2
20260507065436 64 180 6.1 7.8 0.00 0.00 0.00 63 1014.2
20260507064933 64 185 6.1 7.8 0.00 0.00 0.00 64 1014.2
20260507064432 64 184 5.2 7.8 0.00 0.00 0.00 63 1014.1
20260507063935 64 187 7.0 7.8 0.00 0.00 0.00 64 1014.1
20260507063433 64 190 6.1 7.8 0.00 0.00 0.00 64 1014.1
20260507062932 64 186 6.1 7.0 0.00 0.00 0.00 65 1014.0
20260507062434 64 187 7.0 7.0 0.00 0.00 0.00 65 1014.0
20260507061933 64 191 6.1 7.0 0.00 0.00 0.00 66 1014.1
20260507061435 64 185 6.1 7.8 0.00 0.00 0.00 66 1013.8
20260507060933 64 189 6.1 7.8 0.00 0.00 0.00 66 1014.0
20260507060434 64 186 6.1 7.0 0.00 0.00 0.00 67 1013.7
20260507055934 64 184 6.1 7.8 0.00 0.00 0.00 67 1013.7
20260507055435 64 190 6.1 7.8 0.00 0.00 0.00 67 1013.7
20260507054932 64 180 5.2 7.8 0.00 0.00 0.00 67 1013.8
20260507054434 64 183 5.2 7.0 0.00 0.00 0.00 67 1013.7
20260507053933 64 187 5.2 7.8 0.00 0.00 0.00 67 1013.6
20260507053435 64 189 4.3 7.8 0.00 0.00 0.00 68 1013.5
20260507052933 64 184 5.2 7.8 0.00 0.00 0.00 70 1013.5
20260507052433 64 176 5.2 9.6 0.00 0.00 0.00 70 1013.4
20260507051934 64 188 6.1 9.6 0.00 0.00 0.00 71 1013.6
20260507051434 63 180 7.0 8.7 0.00 0.00 0.00 72 1013.5
20260507050933 63 181 5.2 8.7 0.00 0.00 0.00 75 1013.5
20260507050436 63 187 7.0 8.7 0.00 0.00 0.00 77 1013.3
20260507045933 63 186 6.1 9.6 0.00 0.00 0.00 77 1013.3
20260507045434 63 178 7.0 9.6 0.00 0.00 0.00 77 1013.3
20260507044933 63 186 8.7 9.6 0.00 0.00 0.00 77 1013.0
20260507044434 63 187 7.0 7.8 0.00 0.00 0.00 77 1013.1
20260507043934 63 173 6.1 7.8 0.00 0.00 0.00 77 1013.1
20260507043433 63 201 6.1 7.8 0.00 0.00 0.00 77 1013.2
20260507042932 63 197 3.5 7.0 0.00 0.00 0.00 78 1013.1
20260507042435 63 183 6.1 7.0 0.00 0.00 0.00 77 1013.0
20260507041932 63 186 6.1 7.0 0.00 0.00 0.00 77 1013.0
20260507041434 63 186 6.1 7.0 0.00 0.00 0.00 77 1013.0
20260507040932 63 183 6.1 7.8 0.00 0.00 0.00 77 1012.8
20260507040434 63 187 6.1 7.8 0.00 0.00 0.00 77 1012.7
20260507035932 63 192 5.2 7.0 0.00 0.00 0.00 77 1012.6
20260507035434 63 183 6.1 7.0 0.00 0.00 0.00 76 1012.4
20260507034933 63 184 6.1 7.0 0.00 0.00 0.00 75 1012.5
20260507034435 63 184 6.1 7.0 0.00 0.00 0.00 75 1012.7
20260507033932 63 184 6.1 6.1 0.00 0.00 0.00 74 1012.4
20260507033434 63 183 6.1 7.0 0.00 0.00 0.00 74 1012.6
20260507032933 63 184 6.1 7.0 0.00 0.00 0.00 73 1012.5
20260507032433 63 185 6.1 7.0 0.00 0.00 0.00 73 1012.5
20260507031934 63 183 6.1 7.0 0.00 0.00 0.00 72 1012.5
20260507031434 64 184 6.1 7.0 0.00 0.00 0.00 72 1012.7
20260507030932 64 184 5.2 7.0 0.00 0.00 0.00 72 1012.3
20260507030436 64 184 6.1 7.0 0.00 0.00 0.00 71 1012.5
20260507025935 63 183 6.1 7.0 0.00 0.00 0.00 71 1012.4
20260507025434 64 183 6.1 7.0 0.00 0.00 0.00 71 1012.1
20260507024932 64 183 6.1 7.0 0.00 0.00 0.00 71 1012.2
20260507024434 64 185 6.1 7.0 0.00 0.00 0.00 71 1012.2
20260507023934 64 184 6.1 7.0 0.00 0.00 0.00 71 1012.0
20260507023434 64 184 6.1 7.0 0.00 0.00 0.00 70 1012.1
20260507022933 64 186 6.1 7.0 0.00 0.00 0.00 70 1012.0
20260507022436 64 184 6.1 7.0 0.00 0.00 0.00 70 1012.0
20260507021933 64 183 6.1 7.0 0.00 0.00 0.00 70 1011.9
20260507021434 64 183 6.1 6.1 0.00 0.00 0.00 70 1011.9
20260507020933 64 182 6.1 7.0 0.00 0.00 0.00 70 1011.7
20260507020434 64 184 6.1 7.0 0.00 0.00 0.00 70 1011.9
20260507015934 64 185 6.1 7.0 0.00 0.00 0.00 69 1011.8
20260507015434 64 183 6.1 7.0 0.00 0.00 0.00 69 1011.6
20260507014932 64 184 5.2 7.0 0.00 0.00 0.00 69 1011.7
20260507014435 64 185 6.1 7.0 0.00 0.00 0.00 69 1011.6
20260507013933 64 182 6.1 7.0 0.00 0.00 0.00 69 1011.6
20260507013434 64 183 6.1 7.0 0.00 0.00 0.00 69 1011.6
20260507012933 64 184 6.1 7.0 0.00 0.00 0.00 69 1011.5
20260507012434 64 184 6.1 7.0 0.00 0.00 0.00 69 1011.7
20260507011934 65 184 6.1 7.0 0.00 0.00 0.00 68 1011.6
20260507011434 65 183 6.1 7.0 0.00 0.00 0.00 67 1011.6
20260507010933 65 183 6.1 7.0 0.00 0.00 0.00 67 1011.6
20260507010435 65 183 6.1 7.0 0.00 0.00 0.00 66 1011.6
20260507005933 65 183 6.1 7.0 0.00 0.00 0.00 66 1011.4
20260507005434 65 183 6.1 7.0 0.00 0.00 0.00 65 1011.4
20260507004932 65 183 6.1 6.1 0.00 0.00 0.00 65 1011.2
20260507004434 66 183 5.2 6.1 0.00 0.00 0.00 65 1011.3
20260507003934 66 183 5.2 6.1 0.00 0.00 0.00 64 1011.4
20260507003436 66 183 6.1 6.1 0.00 0.00 0.00 64 1011.1
20260507002933 67 182 5.2 7.0 0.00 0.00 0.00 64 1011.2
20260507002436 67 181 5.2 7.0 0.00 0.00 0.00 63 1011.2
20260507001933 67 183 6.1 7.0 0.00 0.00 0.00 63 1011.2
20260507001434 67 183 6.1 7.0 0.00 0.00 0.00 63 1011.3
20260507000933 67 183 6.1 7.0 0.00 0.00 0.00 62 1011.5
20260507000435 67 184 6.1 7.0 0.00 0.00 0.00 61 1011.4
20260506235935 67 182 6.1 7.0 0.00 0.00 0.00 61 1011.4
20260506235434 68 183 6.1 7.0 0.00 0.00 0.00 60 1011.7
20260506234933 68 183 6.1 7.0 0.00 0.00 0.00 60 1011.4
20260506234435 68 183 6.1 7.0 0.00 0.00 0.00 59 1011.1
20260506233934 68 183 6.1 7.0 0.00 0.00 0.00 59 1011.4
20260506233434 68 182 6.1 7.0 0.00 0.00 0.00 58 1011.3
20260506232932 69 184 6.1 7.8 0.00 0.00 0.00 57 1011.1
20260506232435 69 182 6.1 7.8 0.00 0.00 0.00 56 1011.1
20260506231933 69 182 6.1 7.8 0.00 0.00 0.00 56 1011.0
20260506231434 69 183 6.1 8.7 0.00 0.00 0.00 55 1011.1
20260506230933 69 185 7.0 8.7 0.00 0.00 0.00 55 1010.9
20260506230434 70 185 6.1 8.7 0.00 0.00 0.00 54 1010.8
20260506225934 70 183 6.1 7.8 0.00 0.00 0.00 54 1010.9
20260506225433 70 182 7.0 7.8 0.00 0.00 0.00 53 1010.7
20260506224933 70 182 6.1 7.8 0.00 0.00 0.00 52 1010.7
20260506224435 70 185 6.1 7.8 0.00 0.00 0.00 52 1010.6
20260506223933 71 185 7.0 7.8 0.00 0.00 0.00 52 1010.8
20260506223434 71 181 7.0 7.8 0.00 0.00 0.00 51 1010.5
20260506222933 71 180 6.1 7.8 0.00 0.00 0.00 51 1010.6
20260506222434 71 183 7.8 7.8 0.00 0.00 0.00 51 1010.7
20260506221934 71 184 6.1 7.8 0.00 0.00 0.00 51 1010.4
20260506221434 71 183 7.0 7.8 0.00 0.00 0.00 50 1010.5
20260506220933 71 180 5.2 7.8 0.00 0.00 0.00 50 1010.7
20260506220445 71 182 7.0 7.8 0.00 0.00 0.00 50 1010.4
20260506215933 71 180 6.1 7.8 0.00 0.00 0.00 50 1010.6
20260506215434 71 181 6.1 7.8 0.00 0.00 0.00 50 1010.5
20260506214936 71 183 6.1 7.8 0.00 0.00 0.00 50 1010.5
20260506214439 72 182 6.1 7.8 0.00 0.00 0.00 49 1010.3
20260506213936 72 180 5.2 7.8 0.00 0.00 0.00 49 1010.4
20260506213438 72 182 6.1 7.8 0.00 0.00 0.00 48 1010.3
20260506212937 72 181 6.1 7.8 0.00 0.00 0.00 48 1010.2
20260506212438 72 182 5.2 8.7 0.00 0.00 0.00 48 1010.3
20260506211938 72 184 7.0 8.7 0.00 0.00 0.00 48 1010.1
20260506211438 72 183 6.1 7.8 0.00 0.00 0.00 48 1009.9
20260506210937 72 183 7.0 7.8 0.00 0.00 0.00 48 1009.9
20260506210439 72 183 6.1 7.8 0.00 0.00 0.00 48 1010.0
20260506205936 72 185 7.0 8.7 0.00 0.00 0.00 47 1010.0
20260506205438 72 181 5.2 8.7 0.00 0.00 0.00 48 1010.0
20260506204937 71 182 6.1 7.8 0.00 0.00 0.00 49 1010.1
20260506204438 71 184 5.2 7.8 0.00 0.00 0.00 50 1009.9
20260506203938 71 181 6.1 7.0 0.00 0.00 0.00 50 1010.0
20260506203438 71 183 7.0 7.0 0.00 0.00 0.00 51 1009.9
20260506202936 71 183 6.1 7.0 0.00 0.00 0.00 52 1009.9
20260506202440 71 185 7.0 7.0 0.00 0.00 0.00 50 1009.7
20260506201937 72 183 6.1 7.0 0.00 0.00 0.00 49 1009.6
20260506201438 72 182 6.1 7.0 0.00 0.00 0.00 48 1009.5
20260506200937 72 181 6.1 7.0 0.00 0.00 0.00 49 1009.7
20260506200437 72 181 6.1 7.0 0.00 0.00 0.00 48 1009.7
20260506195938 72 182 6.1 7.0 0.00 0.00 0.00 48 1009.5
20260506195438 72 181 7.0 7.0 0.00 0.00 0.00 48 1009.6
20260506194937 72 180 6.1 7.0 0.00 0.00 0.00 48 1009.6
20260506194439 72 183 6.1 7.0 0.00 0.00 0.00 48 1009.5
20260506193936 72 182 6.1 7.0 0.00 0.00 0.00 49 1009.6
20260506193438 72 182 6.1 7.0 0.00 0.00 0.00 49 1009.5
20260506192936 72 182 6.1 7.0 0.00 0.00 0.00 49 1009.4
20260506192438 73 181 6.1 6.1 0.00 0.00 0.00 49 1009.4
20260506191938 73 181 5.2 6.1 0.00 0.00 0.00 49 1009.4
20260506191438 73 182 6.1 6.1 0.00 0.00 0.00 50 1009.3
20260506190938 73 181 5.2 6.1 0.00 0.00 0.00 50 1009.3
20260506190439 73 183 5.2 6.1 0.00 0.00 0.00 50 1009.4
20260506185937 73 182 6.1 6.1 0.00 0.00 0.00 50 1009.3
20260506185438 73 184 5.2 6.1 0.00 0.00 0.00 49 1009.3
20260506184937 74 182 5.2 7.0 0.00 0.00 0.00 48 1009.3
20260506184438 74 181 6.1 7.0 0.00 0.00 0.00 48 1009.3
20260506183938 74 183 6.1 7.0 0.00 0.00 0.00 48 1009.3
20260506183438 74 182 6.1 7.0 0.00 0.00 0.00 48 1009.2
20260506182937 74 181 6.1 7.0 0.00 0.00 0.00 48 1009.4
20260506182442 74 182 6.1 7.0 0.00 0.00 0.00 47 1009.3
20260506181937 74 182 6.1 7.0 0.00 0.00 0.00 47 1009.2
20260506181438 75 182 6.1 7.0 0.00 0.00 0.00 47 1009.2
20260506180937 75 181 6.1 7.0 0.00 0.00 0.00 46 1009.1
20260506180437 75 183 6.1 7.0 0.00 0.00 0.00 46 1008.9
20260506175437 75 181 6.1 7.0 0.00 0.00 0.00 45 1008.9
20260506174937 76 182 6.1 7.0 0.00 0.00 0.00 45 1008.8
20260506174440 76 181 6.1 7.0 0.00 0.00 0.00 44 1008.9
20260506173936 76 183 6.1 7.0 0.00 0.00 0.00 44 1008.8
20260506173436 76 183 6.1 7.0 0.00 0.00 0.00 44 1008.8
20260506172939 77 181 6.1 7.0 0.00 0.00 0.00 44 1008.9
20260506172437 77 183 6.1 7.0 0.00 0.00 0.00 43 1008.8
20260506171939 77 182 6.1 6.1 0.00 0.00 0.00 43 1009.0
20260506171437 78 183 6.1 7.0 0.00 0.00 0.00 43 1008.8
20260506170938 78 182 6.1 7.8 0.00 0.00 0.00 42 1008.7
20260506170438 78 180 6.1 7.8 0.00 0.00 0.00 42 1008.8
20260506165938 78 184 7.0 7.8 0.00 0.00 0.00 42 1008.6
20260506165437 78 181 5.2 7.8 0.00 0.00 0.00 42 1008.7
20260506164938 78 177 6.1 7.8 0.00 0.00 0.00 41 1008.6
20260506164436 78 185 7.0 7.8 0.00 0.00 0.00 41 1008.9
20260506163940 78 184 6.1 7.8 0.00 0.00 0.00 41 1009.1
20260506163437 78 185 6.1 7.8 0.00 0.00 0.00 41 1009.1
20260506162938 79 181 6.1 7.8 0.00 0.00 0.00 41 1009.1
20260506162440 79 182 6.1 7.8 0.00 0.00 0.00 41 1008.8
20260506161938 79 183 5.2 7.8 0.00 0.00 0.00 41 1009.0
20260506161437 79 182 5.2 7.0 0.00 0.00 0.00 40 1008.9
20260506160938 80 180 5.2 7.8 0.00 0.00 0.00 40 1009.1
20260506160438 80 182 6.1 7.8 0.00 0.00 0.00 41 1009.0
20260506155939 80 178 5.2 7.0 0.00 0.00 0.00 40 1009.1
20260506155437 80 182 6.1 8.7 0.00 0.00 0.00 40 1009.2
20260506154938 80 182 6.1 8.7 0.00 0.00 0.00 40 1009.0
20260506154437 80 180 6.1 7.8 0.00 0.00 0.00 40 1009.0
20260506153940 80 182 6.1 7.0 0.00 0.00 0.00 40 1009.3
20260506153436 80 180 5.2 7.0 0.00 0.00 0.00 39 1009.4
20260506152938 80 183 6.1 7.0 0.00 0.00 0.00 39 1009.3
20260506152441 80 182 6.1 7.0 0.00 0.00 0.00 39 1009.2
20260506151938 81 181 5.2 6.1 0.00 0.00 0.00 40 1009.2
20260506151438 81 181 5.2 6.1 0.00 0.00 0.00 38 1009.4
20260506150937 81 180 5.2 6.1 0.00 0.00 0.00 38 1009.7
20260506150438 81 180 5.2 7.0 0.00 0.00 0.00 38 1009.4
20260506145938 81 181 6.1 7.0 0.00 0.00 0.00 37 1009.6
20260506145438 81 181 6.1 7.8 0.00 0.00 0.00 39 1009.5
20260506144937 81 185 6.1 7.8 0.00 0.00 0.00 38 1009.4
20260506144438 81 180 5.2 7.8 0.00 0.00 0.00 37 1009.6
20260506143938 81 180 6.1 7.0 0.00 0.00 0.00 38 1009.7
20260506143438 82 180 6.1 7.0 0.00 0.00 0.00 41 1009.4
20260506142937 82 180 6.1 7.0 0.00 0.00 0.00 37 1009.4
20260506142439 82 180 6.1 7.8 0.00 0.00 0.00 38 1009.8
20260506141937 82 181 6.1 7.8 0.00 0.00 0.00 37 1009.7
20260506141439 82 180 7.0 7.0 0.00 0.00 0.00 39 1009.8
20260506140936 82 178 5.2 7.8 0.00 0.00 0.00 37 1009.7
20260506140438 83 181 6.1 7.8 0.00 0.00 0.00 37 1009.9
20260506135938 83 179 5.2 7.0 0.00 0.00 0.00 37 1010.0
20260506135438 83 180 5.2 7.0 0.00 0.00 0.00 38 1009.8
20260506134937 84 180 5.2 7.0 0.00 0.00 0.00 36 1009.8
20260506134439 84 180 5.2 7.8 0.00 0.00 0.00 37 1010.0
20260506133937 84 180 5.2 7.8 0.00 0.00 0.00 36 1010.1
20260506133438 85 176 5.2 7.8 0.00 0.00 0.00 37 1010.0
20260506132937 85 176 5.2 7.0 0.00 0.00 0.00 37 1010.1
20260506132437 85 180 5.2 7.8 0.00 0.00 0.00 35 1010.2
20260506131939 86 180 5.2 8.7 0.00 0.00 0.00 36 1010.2
20260506131439 86 177 5.2 8.7 0.00 0.00 0.00 35 1010.1
20260506130937 86 179 6.1 7.8 0.00 0.00 0.00 36 1010.3
20260506130440 86 180 4.3 7.8 0.00 0.00 0.00 35 1010.4
20260506125937 86 179 5.2 7.0 0.00 0.00 0.00 36 1010.5
20260506125438 86 180 6.1 7.8 0.00 0.00 0.00 35 1010.8
20260506124937 86 181 7.0 8.7 0.00 0.00 0.00 36 1010.5
20260506124439 86 180 5.2 8.7 0.00 0.00 0.00 36 1010.7
20260506123936 86 180 6.1 7.8 0.00 0.00 0.00 36 1010.7
20260506123438 85 178 5.2 8.7 0.00 0.00 0.00 38 1010.7
20260506122936 85 180 5.2 8.7 0.00 0.00 0.00 38 1010.7
20260506122438 84 177 4.3 7.8 0.00 0.00 0.00 38 1010.9
20260506121939 83 180 5.2 7.8 0.00 0.00 0.00 37 1011.0
20260506121438 83 181 7.0 10.4 0.00 0.00 0.00 37 1010.9
20260506120937 82 180 5.2 10.4 0.00 0.00 0.00 39 1011.0
20260506120440 82 180 6.1 7.8 0.00 0.00 0.00 39 1011.1
20260506115937 82 179 6.1 8.7 0.00 0.00 0.00 40 1011.2
20260506115439 82 181 6.1 9.6 0.00 0.00 0.00 40 1011.3
20260506114938 82 179 5.2 9.6 0.00 0.00 0.00 39 1011.1
20260506114439 83 181 7.0 7.8 0.00 0.00 0.00 39 1011.3
20260506113938 83 175 6.1 7.8 0.00 0.00 0.00 38 1011.5
20260506113438 83 180 5.2 7.8 0.00 0.00 0.00 40 1011.3
20260506112936 82 183 6.1 11.3 0.00 0.00 0.00 39 1011.4
20260506112440 82 181 6.1 11.3 0.00 0.00 0.00 39 1011.6
20260506111936 82 179 7.0 7.8 0.00 0.00 0.00 39 1011.6
20260506111439 82 177 5.2 9.6 0.00 0.00 0.00 40 1011.6
20260506110937 82 184 7.0 9.6 0.00 0.00 0.00 40 1011.7
20260506110439 81 182 5.2 9.6 0.00 0.00 0.00 42 1011.7
20260506105939 80 185 5.2 9.6 0.00 0.00 0.00 40 1011.7
20260506105439 80 180 5.2 7.8 0.00 0.00 0.00 40 1011.7
20260506104937 80 181 5.2 7.8 0.00 0.00 0.00 41 1011.9
20260506104439 79 186 6.1 7.8 0.00 0.00 0.00 41 1011.9
20260506103937 79 181 5.2 7.8 0.00 0.00 0.00 42 1012.0
20260506103439 79 181 5.2 9.6 0.00 0.00 0.00 40 1011.8
20260506102937 79 185 6.1 9.6 0.00 0.00 0.00 40 1012.0
20260506102439 79 181 5.2 7.8 0.00 0.00 0.00 41 1012.1
20260506101939 78 185 5.2 7.8 0.00 0.00 0.00 41 1012.2
20260506101439 78 186 7.8 7.8 0.00 0.00 0.00 41 1012.1
20260506100937 78 188 7.0 7.8 0.00 0.00 0.00 41 1012.2
20260506100444 78 181 5.2 8.7 0.00 0.00 0.00 43 1012.3